| time (UTC) | temp C | wind direction | speed KPH | gust KPH | rain 1hr cm | rain 24hr cm | rain mn cm | humidity % | barometer mb |
| 20260504120150 | 10 | 195 | 4.8 | 9.7 | 0.00 | 0.00 | 0.00 | 66 | 1013.9 |
| 20260504110618 | 6 | 165 | 1.6 | 3.2 | 0.00 | 0.00 | 0.00 | 83 | 1014.0 |
| 20260504110114 | 6 | 156 | 1.6 | 3.2 | 0.00 | 0.00 | 0.00 | 85 | 1014.1 |
| 20260504100539 | 5 | 76 | 1.6 | 3.2 | 0.00 | 0.00 | 0.00 | 87 | 1014.0 |
| 20260504081933 | 5 | 124 | 3.2 | 4.8 | 0.00 | 0.00 | 0.00 | 86 | 1014.6 |
| 20260504081430 | 5 | 69 | 3.2 | 4.8 | 0.00 | 0.00 | 0.00 | 87 | 1014.5 |
| 20260504080926 | 5 | 71 | 0.0 | 3.2 | 0.00 | 0.00 | 0.00 | 86 | 1014.4 |
| 20260504080423 | 5 | 69 | 0.0 | 3.2 | 0.00 | 0.00 | 0.00 | 85 | 1014.6 |
| 20260504070350 | 5 | 62 | 3.2 | 4.8 | 0.00 | 0.00 | 0.00 | 76 | 1014.6 |
| 20260504050738 | 5 | 148 | 1.6 | 3.2 | 0.00 | 0.00 | 0.00 | 72 | 1015.1 |
| 20260504050235 | 5 | 139 | 0.0 | 3.2 | 0.00 | 0.00 | 0.00 | 72 | 1015.4 |
| 20260504045732 | 5 | 147 | 0.0 | 3.2 | 0.00 | 0.00 | 0.00 | 72 | 1015.2 |
| 20260504045227 | 5 | 154 | 3.2 | 3.2 | 0.00 | 0.00 | 0.00 | 70 | 1015.3 |
| 20260504044725 | 5 | 185 | 1.6 | 3.2 | 0.00 | 0.00 | 0.00 | 70 | 1015.2 |
| 20260504044222 | 5 | 162 | 3.2 | 4.8 | 0.00 | 0.00 | 0.00 | 71 | 1015.2 |
| 20260504043720 | 5 | 174 | 3.2 | 3.2 | 0.00 | 0.00 | 0.00 | 69 | 1015.4 |
| 20260504043216 | 6 | 161 | 3.2 | 4.8 | 0.00 | 0.00 | 0.00 | 67 | 1015.1 |
| 20260504042714 | 5 | 175 | 1.6 | 3.2 | 0.00 | 0.00 | 0.00 | 68 | 1015.1 |
| 20260504042210 | 5 | 181 | 3.2 | 3.2 | 0.00 | 0.00 | 0.00 | 68 | 1015.1 |
| 20260504041706 | 5 | 189 | 3.2 | 4.8 | 0.00 | 0.00 | 0.00 | 68 | 1015.0 |
| 20260504041202 | 5 | 194 | 3.2 | 3.2 | 0.00 | 0.00 | 0.00 | 69 | 1015.0 |
| 20260504040659 | 5 | 179 | 3.2 | 3.2 | 0.00 | 0.00 | 0.00 | 70 | 1015.1 |
| 20260504040156 | 5 | 170 | 1.6 | 3.2 | 0.00 | 0.00 | 0.00 | 71 | 1015.0 |
| 20260504035652 | 5 | 181 | 1.6 | 3.2 | 0.00 | 0.00 | 0.00 | 73 | 1015.1 |
| 20260504035150 | 4 | 176 | 1.6 | 3.2 | 0.00 | 0.00 | 0.00 | 79 | 1015.1 |
| 20260504034647 | 4 | 160 | 1.6 | 3.2 | 0.00 | 0.00 | 0.00 | 79 | 1015.0 |
| 20260504034144 | 5 | 145 | 0.0 | 3.2 | 0.00 | 0.00 | 0.00 | 75 | 1015.0 |
| 20260504033642 | 5 | 141 | 3.2 | 4.8 | 0.00 | 0.00 | 0.00 | 72 | 1015.1 |
| 20260504033139 | 5 | 142 | 3.2 | 3.2 | 0.00 | 0.00 | 0.00 | 70 | 1014.9 |
| 20260504032635 | 6 | 146 | 1.6 | 4.8 | 0.00 | 0.00 | 0.00 | 68 | 1014.7 |
| 20260504032132 | 6 | 148 | 3.2 | 3.2 | 0.00 | 0.00 | 0.00 | 65 | 1014.7 |
| 20260504031630 | 6 | 146 | 1.6 | 3.2 | 0.00 | 0.00 | 0.00 | 64 | 1014.7 |
| 20260504031126 | 5 | 205 | 1.6 | 3.2 | 0.00 | 0.00 | 0.00 | 66 | 1014.7 |
| 20260504030623 | 5 | 146 | 3.2 | 3.2 | 0.00 | 0.00 | 0.00 | 67 | 1014.6 |
| 20260504030120 | 5 | 166 | 1.6 | 1.6 | 0.00 | 0.00 | 0.00 | 70 | 1014.6 |
| 20260504025616 | 5 | 152 | 3.2 | 3.2 | 0.00 | 0.00 | 0.00 | 70 | 1014.8 |
| 20260504025113 | 5 | 158 | 3.2 | 3.2 | 0.00 | 0.00 | 0.00 | 71 | 1014.7 |
| 20260504024611 | 6 | 166 | 1.6 | 3.2 | 0.00 | 0.00 | 0.00 | 70 | 1014.3 |
| 20260504024107 | 6 | 158 | 1.6 | 3.2 | 0.00 | 0.00 | 0.00 | 66 | 1014.4 |
| 20260504023603 | 6 | 238 | 1.6 | 3.2 | 0.00 | 0.00 | 0.00 | 64 | 1014.4 |
| 20260504023059 | 6 | 267 | 4.8 | 4.8 | 0.00 | 0.00 | 0.00 | 66 | 1014.3 |
| 20260504022556 | 6 | 241 | 3.2 | 3.2 | 0.00 | 0.00 | 0.00 | 66 | 1014.4 |
| 20260504022052 | 7 | 169 | 1.6 | 3.2 | 0.00 | 0.00 | 0.00 | 62 | 1014.2 |
| 20260504021550 | 7 | 136 | 4.8 | 4.8 | 0.00 | 0.00 | 0.00 | 59 | 1014.2 |
| 20260504021046 | 7 | 75 | 3.2 | 4.8 | 0.00 | 0.00 | 0.00 | 58 | 1014.4 |
| 20260504020543 | 7 | 343 | 0.0 | 0.0 | 0.00 | 0.00 | 0.00 | 60 | 1014.4 |
| 20260504020040 | 7 | 193 | 3.2 | 3.2 | 0.00 | 0.00 | 0.00 | 60 | 1014.4 |
| 20260504015536 | 7 | 160 | 3.2 | 3.2 | 0.00 | 0.00 | 0.00 | 57 | 1014.2 |
| 20260504015032 | 7 | 73 | 3.2 | 4.8 | 0.00 | 0.00 | 0.00 | 56 | 1014.3 |
| 20260504014528 | 7 | 107 | 3.2 | 3.2 | 0.00 | 0.00 | 0.00 | 56 | 1014.3 |
| 20260504014026 | 8 | 89 | 0.0 | 1.6 | 0.00 | 0.00 | 0.00 | 53 | 1014.2 |
| 20260504013524 | 8 | 235 | 1.6 | 3.2 | 0.00 | 0.00 | 0.00 | 53 | 1014.2 |
| 20260504013020 | 8 | 212 | 1.6 | 3.2 | 0.00 | 0.00 | 0.00 | 54 | 1014.0 |
| 20260504012518 | 8 | 200 | 1.6 | 1.6 | 0.00 | 0.00 | 0.00 | 52 | 1014.3 |
| 20260504012016 | 9 | 189 | 0.0 | 3.2 | 0.00 | 0.00 | 0.00 | 48 | 1014.1 |
| 20260504011512 | 10 | 121 | 3.2 | 4.8 | 0.00 | 0.00 | 0.00 | 44 | 1014.1 |
| 20260504011008 | 11 | 89 | 0.0 | 3.2 | 0.00 | 0.00 | 0.00 | 41 | 1013.9 |
| 20260504010504 | 11 | 147 | 0.0 | 0.0 | 0.00 | 0.00 | 0.00 | 39 | 1013.9 |
| 20260504010000 | 11 | 246 | 0.0 | 3.2 | 0.00 | 0.00 | 0.00 | 39 | 1014.0 |
| 20260504005457 | 11 | 269 | 0.0 | 3.2 | 0.00 | 0.00 | 0.00 | 39 | 1014.0 |
| 20260504004954 | 11 | 229 | 1.6 | 3.2 | 0.00 | 0.00 | 0.00 | 38 | 1014.0 |
| 20260504004452 | 12 | 185 | 1.6 | 1.6 | 0.00 | 0.00 | 0.00 | 38 | 1013.8 |
| 20260504003949 | 12 | 223 | 3.2 | 3.2 | 0.00 | 0.00 | 0.00 | 37 | 1013.8 |
| 20260504003445 | 12 | 247 | 3.2 | 3.2 | 0.00 | 0.00 | 0.00 | 35 | 1013.9 |
| 20260504002942 | 12 | 267 | 1.6 | 3.2 | 0.00 | 0.00 | 0.00 | 36 | 1013.7 |
| 20260504002439 | 13 | 223 | 3.2 | 3.2 | 0.00 | 0.00 | 0.00 | 35 | 1013.6 |
| 20260504001936 | 13 | 256 | 3.2 | 3.2 | 0.00 | 0.00 | 0.00 | 36 | 1013.8 |
| 20260504001433 | 13 | 222 | 3.2 | 3.2 | 0.00 | 0.00 | 0.00 | 34 | 1013.9 |
| 20260504000930 | 13 | 204 | 3.2 | 3.2 | 0.00 | 0.00 | 0.00 | 34 | 1014.0 |
| 20260504000427 | 13 | 209 | 3.2 | 4.8 | 0.00 | 0.00 | 0.00 | 34 | 1013.9 |
| 20260503235924 | 13 | 232 | 3.2 | 3.2 | 0.00 | 0.00 | 0.00 | 34 | 1013.6 |
| 20260503235422 | 13 | 253 | 3.2 | 6.4 | 0.00 | 0.00 | 0.00 | 34 | 1013.8 |
| 20260503234919 | 14 | 272 | 4.8 | 14.5 | 0.00 | 0.00 | 0.00 | 33 | 1013.4 |
| 20260503234417 | 15 | 265 | 4.8 | 9.7 | 0.00 | 0.00 | 0.00 | 33 | 1013.6 |
| 20260503233914 | 16 | 273 | 3.2 | 6.4 | 0.00 | 0.00 | 0.00 | 31 | 1013.6 |
| 20260503233411 | 16 | 186 | 0.0 | 4.8 | 0.00 | 0.00 | 0.00 | 33 | 1013.5 |
| 20260503232907 | 16 | 215 | 1.6 | 6.4 | 0.00 | 0.00 | 0.00 | 30 | 1013.4 |
| 20260503232405 | 16 | 272 | 3.2 | 6.4 | 0.00 | 0.00 | 0.00 | 32 | 1013.3 |
| 20260503231902 | 16 | 247 | 3.2 | 8.0 | 0.00 | 0.00 | 0.00 | 32 | 1013.3 |
| 20260503231359 | 16 | 281 | 4.8 | 8.0 | 0.00 | 0.00 | 0.00 | 30 | 1013.1 |
| 20260503230855 | 16 | 301 | 9.7 | 12.9 | 0.00 | 0.00 | 0.00 | 30 | 1013.2 |
| 20260503230352 | 16 | 304 | 6.4 | 8.0 | 0.00 | 0.00 | 0.00 | 30 | 1013.2 |
| 20260503225850 | 16 | 336 | 9.7 | 9.7 | 0.00 | 0.00 | 0.00 | 30 | 1013.3 |
| 20260503225345 | 16 | 306 | 4.8 | 14.5 | 0.00 | 0.00 | 0.00 | 29 | 1013.2 |
| 20260503224842 | 17 | 294 | 8.0 | 9.7 | 0.00 | 0.00 | 0.00 | 29 | 1013.1 |
| 20260503224339 | 17 | 291 | 3.2 | 9.7 | 0.00 | 0.00 | 0.00 | 30 | 1013.1 |
| 20260503223837 | 17 | 276 | 3.2 | 19.3 | 0.00 | 0.00 | 0.00 | 28 | 1013.0 |
| 20260503223335 | 17 | 298 | 3.2 | 12.9 | 0.00 | 0.00 | 0.00 | 29 | 1013.2 |
| 20260503222830 | 17 | 255 | 6.4 | 16.1 | 0.00 | 0.00 | 0.00 | 30 | 1013.3 |
| 20260503222329 | 17 | 334 | 1.6 | 11.3 | 0.00 | 0.00 | 0.00 | 28 | 1013.3 |
| 20260503221826 | 17 | 51 | 0.0 | 9.7 | 0.00 | 0.00 | 0.00 | 30 | 1013.3 |
| 20260503221325 | 17 | 278 | 9.7 | 14.5 | 0.00 | 0.00 | 0.00 | 30 | 1013.3 |
| 20260503220820 | 17 | 272 | 9.7 | 16.1 | 0.00 | 0.00 | 0.00 | 31 | 1013.2 |
| 20260503220318 | 17 | 290 | 8.0 | 12.9 | 0.00 | 0.00 | 0.00 | 29 | 1013.5 |
| 20260503215814 | 16 | 235 | 8.0 | 12.9 | 0.00 | 0.00 | 0.00 | 32 | 1013.3 |
| 20260503215312 | 17 | 301 | 3.2 | 11.3 | 0.00 | 0.00 | 0.00 | 29 | 1013.3 |
| 20260503214809 | 17 | 347 | 9.7 | 11.3 | 0.00 | 0.00 | 0.00 | 30 | 1013.4 |
| 20260503214306 | 17 | 292 | 4.8 | 12.9 | 0.00 | 0.00 | 0.00 | 28 | 1013.2 |
| 20260503213804 | 17 | 307 | 17.7 | 17.7 | 0.00 | 0.00 | 0.00 | 31 | 1013.4 |
| 20260503213301 | 17 | 316 | 6.4 | 16.1 | 0.00 | 0.00 | 0.00 | 29 | 1013.3 |
| 20260503212758 | 17 | 282 | 8.0 | 19.3 | 0.00 | 0.00 | 0.00 | 31 | 1013.4 |
| 20260503212256 | 17 | 289 | 11.3 | 16.1 | 0.00 | 0.00 | 0.00 | 28 | 1013.5 |
| 20260503211753 | 17 | 228 | 14.5 | 20.9 | 0.00 | 0.00 | 0.00 | 28 | 1013.3 |
| 20260503211249 | 17 | 263 | 9.7 | 14.5 | 0.00 | 0.00 | 0.00 | 30 | 1013.3 |
| 20260503210744 | 17 | 314 | 8.0 | 22.5 | 0.00 | 0.00 | 0.00 | 29 | 1013.3 |
| 20260503210242 | 17 | 317 | 3.2 | 17.7 | 0.00 | 0.00 | 0.00 | 29 | 1013.6 |
| 20260503205742 | 17 | 293 | 12.9 | 12.9 | 0.00 | 0.00 | 0.00 | 29 | 1013.4 |
| 20260503205239 | 17 | 250 | 6.4 | 16.1 | 0.00 | 0.00 | 0.00 | 30 | 1013.4 |
| 20260503204735 | 17 | 314 | 11.3 | 14.5 | 0.00 | 0.00 | 0.00 | 31 | 1013.6 |
| 20260503204233 | 17 | 279 | 14.5 | 24.1 | 0.00 | 0.00 | 0.00 | 31 | 1013.4 |
| 20260503203731 | 17 | 248 | 12.9 | 16.1 | 0.00 | 0.00 | 0.00 | 29 | 1013.6 |
| 20260503203228 | 17 | 294 | 19.3 | 19.3 | 0.00 | 0.00 | 0.00 | 29 | 1013.5 |
| 20260503202725 | 17 | 240 | 4.8 | 9.7 | 0.00 | 0.00 | 0.00 | 28 | 1013.5 |
| 20260503202223 | 16 | 297 | 9.7 | 16.1 | 0.00 | 0.00 | 0.00 | 34 | 1013.5 |
| 20260503201720 | 16 | 276 | 8.0 | 14.5 | 0.00 | 0.00 | 0.00 | 32 | 1013.5 |
| 20260503201218 | 16 | 256 | 11.3 | 16.1 | 0.00 | 0.00 | 0.00 | 29 | 1013.7 |
| 20260503200714 | 16 | 279 | 11.3 | 16.1 | 0.00 | 0.00 | 0.00 | 29 | 1013.9 |
| 20260503200210 | 17 | 260 | 11.3 | 12.9 | 0.00 | 0.00 | 0.00 | 32 | 1014.0 |
| 20260503195707 | 16 | 351 | 8.0 | 14.5 | 0.00 | 0.00 | 0.00 | 29 | 1013.9 |
| 20260503195204 | 17 | 222 | 17.7 | 22.5 | 0.00 | 0.00 | 0.00 | 31 | 1014.0 |
| 20260503194701 | 17 | 324 | 4.8 | 8.0 | 0.00 | 0.00 | 0.00 | 30 | 1014.1 |
| 20260503194156 | 17 | 15 | 8.0 | 9.7 | 0.00 | 0.00 | 0.00 | 32 | 1014.1 |
| 20260503193653 | 17 | 306 | 6.4 | 17.7 | 0.00 | 0.00 | 0.00 | 35 | 1014.3 |
| 20260503193149 | 16 | 335 | 0.0 | 9.7 | 0.00 | 0.00 | 0.00 | 33 | 1014.4 |
| 20260503192645 | 16 | 316 | 3.2 | 14.5 | 0.00 | 0.00 | 0.00 | 35 | 1014.4 |
| 20260503192141 | 16 | 255 | 14.5 | 20.9 | 0.00 | 0.00 | 0.00 | 32 | 1014.6 |
| 20260503191638 | 15 | 239 | 17.7 | 25.7 | 0.00 | 0.00 | 0.00 | 32 | 1014.5 |
| 20260503191135 | 15 | 249 | 11.3 | 19.3 | 0.00 | 0.00 | 0.00 | 31 | 1014.8 |
| 20260503190632 | 16 | 226 | 14.5 | 19.3 | 0.00 | 0.00 | 0.00 | 34 | 1014.7 |
| 20260503190129 | 16 | 281 | 14.5 | 17.7 | 0.00 | 0.00 | 0.00 | 33 | 1014.9 |
| 20260503185625 | 16 | 181 | 0.0 | 6.4 | 0.00 | 0.00 | 0.00 | 30 | 1014.9 |
| 20260503185120 | 16 | 287 | 14.5 | 19.3 | 0.00 | 0.00 | 0.00 | 35 | 1015.0 |
| 20260503184615 | 15 | 341 | 3.2 | 9.7 | 0.00 | 0.00 | 0.00 | 35 | 1015.0 |
| 20260503184112 | 16 | 255 | 9.7 | 20.9 | 0.00 | 0.00 | 0.00 | 32 | 1014.9 |
| 20260503183609 | 15 | 353 | 11.3 | 20.9 | 0.00 | 0.00 | 0.00 | 37 | 1015.1 |
| 20260503183106 | 15 | 310 | 4.8 | 16.1 | 0.00 | 0.00 | 0.00 | 37 | 1014.8 |
| 20260503182605 | 16 | 278 | 16.1 | 20.9 | 0.00 | 0.00 | 0.00 | 35 | 1015.1 |
| 20260503182102 | 15 | 286 | 11.3 | 22.5 | 0.00 | 0.00 | 0.00 | 35 | 1015.0 |
| 20260503181559 | 15 | 246 | 17.7 | 22.5 | 0.00 | 0.00 | 0.00 | 34 | 1015.3 |
| 20260503181055 | 15 | 2 | 8.0 | 14.5 | 0.00 | 0.00 | 0.00 | 32 | 1015.1 |
| 20260503180553 | 15 | 267 | 12.9 | 24.1 | 0.00 | 0.00 | 0.00 | 37 | 1015.1 |
| 20260503180050 | 15 | 325 | 17.7 | 22.5 | 0.00 | 0.00 | 0.00 | 36 | 1015.4 |
| 20260503175547 | 14 | 293 | 8.0 | 25.7 | 0.00 | 0.00 | 0.00 | 41 | 1015.1 |
| 20260503175044 | 13 | 282 | 19.3 | 35.4 | 0.00 | 0.00 | 0.00 | 36 | 1015.3 |
| 20260503174542 | 14 | 285 | 6.4 | 14.5 | 0.00 | 0.00 | 0.00 | 48 | 1015.5 |
| 20260503174038 | 13 | 303 | 14.5 | 24.1 | 0.00 | 0.00 | 0.00 | 41 | 1015.4 |
| 20260503173533 | 13 | 231 | 16.1 | 29.0 | 0.00 | 0.00 | 0.00 | 34 | 1015.5 |
| 20260503173029 | 14 | 289 | 22.5 | 24.1 | 0.00 | 0.00 | 0.00 | 39 | 1015.6 |
| 20260503172527 | 13 | 263 | 17.7 | 20.9 | 0.00 | 0.00 | 0.00 | 39 | 1015.5 |
| 20260503172024 | 13 | 298 | 16.1 | 32.2 | 0.00 | 0.00 | 0.00 | 35 | 1015.6 |
| 20260503171521 | 13 | 318 | 9.7 | 19.3 | 0.00 | 0.00 | 0.00 | 40 | 1015.9 |
| 20260503171018 | 13 | 293 | 9.7 | 24.1 | 0.00 | 0.00 | 0.00 | 39 | 1015.8 |
| 20260503170514 | 12 | 339 | 14.5 | 24.1 | 0.00 | 0.00 | 0.00 | 40 | 1015.6 |
| 20260503150906 | 11 | 341 | 16.1 | 27.4 | 0.00 | 0.00 | 0.00 | 43 | 1016.7 |
| 20260503150403 | 10 | 273 | 4.8 | 12.9 | 0.00 | 0.00 | 0.00 | 45 | 1016.6 |
| 20260503131256 | 8 | 307 | 16.1 | 19.3 | 0.00 | 0.00 | 0.00 | 50 | 1017.1 |
| 20260503130754 | 8 | 295 | 20.9 | 22.5 | 0.00 | 0.00 | 0.00 | 50 | 1017.1 |
| 20260503130251 | 8 | 336 | 14.5 | 24.1 | 0.00 | 0.00 | 0.00 | 50 | 1017.3 |